EST,Max TemperatureF,Mean TemperatureF,Min TemperatureF,Max Dew PointF,MeanDew PointF,Min DewpointF,Max Humidity, Mean Humidity, Min Humidity, Max Sea Level PressureIn, Mean Sea Level PressureIn, Min Sea Level PressureIn, Max VisibilityMiles, Mean VisibilityMiles, Min VisibilityMiles, Max Wind SpeedMPH, Mean Wind SpeedMPH, Max Gust SpeedMPH,PrecipitationIn, CloudCover, Events, WindDirDegrees
2013-2-1,73,62,50,53,46,36,72,61,49,30.27,30.22,30.17,10,10,10,21,11,29,0.00,2,,339
2013-2-2,74,63,51,50,45,35,77,59,41,30.26,30.20,30.13,10,10,10,16,6,23,0.00,3,,33
2013-2-3,74,63,52,52,45,31,89,55,20,30.17,30.11,30.08,10,10,10,16,7,21,0.00,3,,335
2013-2-4,75,61,46,52,45,37,80,54,27,30.14,30.08,30.03,10,10,10,15,5,18,0.00,2,,244
2013-2-5,78,65,51,61,55,48,89,66,43,30.09,30.05,30.01,10,10,10,14,4,21,0.00,3,,138
2013-2-6,78,69,59,63,60,57,93,75,57,30.11,30.07,30.02,10,10,10,16,6,18,0.00,4,,108
2013-2-7,80,74,68,65,63,60,78,66,54,30.08,30.02,29.95,10,10,10,16,10,21,0.00,4,,134
2013-2-8,83,74,65,67,65,55,93,68,43,30.04,29.98,29.91,10,10,10,16,8,24,0.00,5,,256
2013-2-9,80,71,61,65,61,57,100,77,54,30.17,30.11,30.02,10,10,10,17,9,22,T,4,,39
2013-2-10,76,72,68,63,60,57,73,65,57,30.27,30.20,30.16,10,10,10,22,15,28,0.06,6,Rain,101
2013-2-11,78,73,68,63,61,59,73,65,56,30.22,30.17,30.11,10,10,10,20,11,24,T,3,,146
2013-2-12,84,73,61,67,64,60,93,70,47,30.12,30.05,29.97,10,10,10,20,8,25,0.00,3,,175
2013-2-13,88,79,69,70,68,66,97,74,51,30.01,29.95,29.88,10,10,10,20,10,24,0.00,3,,193
2013-2-14,76,70,63,70,66,61,97,88,78,30.01,29.96,29.88,10,7,0,22,8,29,1.59,8,Fog-Rain-Thunderstorm,358
2013-2-15,73,69,64,65,64,61,93,86,79,30.03,29.98,29.94,10,10,4,14,5,22,0.18,8,Rain,360
2013-2-16,72,63,53,62,54,40,100,70,40,30.08,29.94,29.88,10,10,10,26,13,33,T,6,Rain,300
2013-2-17,58,51,44,39,25,14,63,42,21,30.30,30.22,30.09,10,10,10,25,17,31,0.00,1,,335
2013-2-18,69,58,46,53,41,28,61,50,39,30.33,30.28,30.22,10,10,10,21,11,24,0.00,5,,58
2013-2-19,78,69,59,65,58,51,84,69,53,30.19,30.15,30.09,10,10,9,21,10,25,0.09,4,Rain,166
2013-2-20,78,70,61,65,63,59,100,79,58,30.12,30.07,30.02,10,10,10,14,6,18,0.01,4,,55
2013-2-21,81,71,61,67,64,60,93,76,58,30.10,30.05,30.01,10,10,10,15,7,20,0.00,4,,120
2013-2-22,81,76,71,70,68,65,84,76,67,30.10,30.06,30.02,10,10,10,22,14,25,0.00,4,,141
2013-2-23,84,78,71,72,69,66,93,78,62,30.04,29.98,29.91,10,10,10,21,11,26,0.03,4,Rain,167
2013-2-24,88,79,70,72,69,62,100,74,48,30.00,29.94,29.90,10,10,7,16,8,20,0.00,5,,215
2013-2-25,84,76,67,71,69,66,90,78,65,29.92,29.87,29.82,10,10,10,22,9,29,T,5,Rain,169
2013-2-26,88,82,75,72,69,65,87,67,46,29.89,29.84,29.80,10,10,10,28,13,35,T,5,Rain,195
2013-2-27,76,70,63,72,63,56,93,75,57,29.96,29.92,29.87,10,8,1,15,7,24,0.44,7,Rain,271
2013-2-28,69,64,58,62,51,45,93,68,42,30.01,29.95,29.91,10,10,10,17,9,23,0.00,6,,278